Tracking 27122 objects as of 24-Mar-2023
HD Live streaming from Space Station
objects crossing your sky now

STARLINK-2648

Track STARLINK-2648 now!
10-day predictions
STARLINK-2648 is classified as:


NORAD ID: 48679
Int'l Code: 2021-044AT
Perigee: 553.6 km
Apogee: 555.2 km
Inclination: 53.1 °
Period: 95.6 minutes
Semi major axis: 6925 km
RCS: Unknown
Launch date: May 26, 2021
Source: United States (US)
Launch site: AIR FORCE EASTERN TEST RANGE (AFETR)
Your satellite tracking list
Your tracking list is empty




NASA's NSSDC Master Catalog

Two Line Element Set (TLE):
1 48679U 21044AT  23083.00848402  .00017620  00000-0  11992-2 0  9997
2 48679  53.0512 287.4774 0001145  87.0007 273.1113 15.06387638101652
Source of the keplerian elements: AFSPC